Whitefield, NH

9:59 AM EDT on August 27, 2016 (GMT -0400)
Mount Washington Regional

Weather History for KHIE - February, 2012

Change the Weather History Date:

Friday, February 24, 2012

  Actual Average Record
Temperature  
Mean Temperature 30 °F -  
Max Temperature 37 °F 30 °F 51 °F (2016)
Min Temperature 23 °F 3 °F -33 °F (2015)
Degree Days  
Heating Degree Days 35    
Moisture  
Dew Point 26 °F    
Average Humidity 82    
Maximum Humidity 96    
Minimum Humidity 44    
Precipitation  
Precipitation 0.14 in - - ()
Sea Level Pressure  
Sea Level Pressure 29.46 in    
Wind  
Wind Speed 5 mph (South)    
Max Wind Speed 21 mph    
Max Gust Speed 30 mph    
Visibility 5 miles    
Events Fog , Snow    
Averages and records for this station are not official NWS values.
T = Trace of Precipitation, MM = Missing Value Source: NWS Daily Summary

Daily Weather History Graph

Daily Weather History Graph

Search for Another Location

Airport or City:

Trip Planner

Search our weather history database for the weather conditions in past years. The results will help you decide how hot, cold, wet, or windy it might be!

Date:

Astronomy

Feb. 24, 2012 Rise Set
Actual Time 6:32 AM EST 5:26 PM EST
Civil Twilight 6:03 AM EST 5:56 PM EST
Nautical Twilight 5:29 AM EST 6:29 PM EST
Astronomical Twilight 4:56 AM EST 7:03 PM EST
Moon 7:17 AM EST (2/24) 8:37 PM EST (2/24)
Length of Visible Light 11h 52m
Length of Day
10h 54m
Waxing Crescent, 7% of the Moon is Illuminated
Feb 24
Waxing Crescent
Feb 29
First Quarter
Mar 8
Full
Mar 14
Last Quarter
Mar 22
New

Hourly Weather History & Observations

Time (EST) Temp. Windchill Dew Point Humidity Pressure Visibility Wind Dir Wind Speed Gust Speed Precip Events Conditions
12:52 AM 28.0 °F 24.2 °F 21.0 °F 75% 29.75 in 10.0 mi SSW 3.5 mph - N/A   Clear
1:52 AM 24.1 °F - 19.9 °F 84% 29.76 in 10.0 mi Calm Calm - N/A   Clear
2:52 AM 24.1 °F - 21.0 °F 88% 29.76 in 10.0 mi Calm Calm - N/A   Clear
3:52 AM 23.0 °F - 19.9 °F 88% 29.78 in 10.0 mi Calm Calm - N/A   Clear
4:52 AM 23.0 °F - 21.0 °F 92% 29.78 in 10.0 mi Calm Calm - N/A   Clear
5:52 AM 24.1 °F - 21.0 °F 88% 29.78 in 10.0 mi Calm Calm - N/A   Clear
6:52 AM 23.0 °F - 21.0 °F 92% 29.77 in 10.0 mi Calm Calm - N/A   Clear
7:52 AM 27.0 °F - 23.0 °F 85% 29.75 in 10.0 mi Calm Calm - N/A   Clear
8:52 AM 30.9 °F 26.2 °F 23.0 °F 72% 29.75 in 10.0 mi ENE 4.6 mph - N/A   Clear
9:52 AM 35.1 °F - 19.9 °F 54% 29.74 in 10.0 mi Calm Calm - N/A   Overcast
10:52 AM 37.0 °F 29.8 °F 19.0 °F 48% 29.73 in 10.0 mi SSE 10.4 mph - N/A   Overcast
11:52 AM 37.0 °F 29.3 °F 17.1 °F 44% 29.70 in 10.0 mi ESE 11.5 mph 19.6 mph N/A   Overcast
12:52 PM 36.0 °F 28.0 °F 18.0 °F 48% 29.63 in 10.0 mi South 11.5 mph - N/A   Overcast
1:52 PM 35.1 °F 23.8 °F 19.0 °F 52% 29.61 in 10.0 mi South 20.7 mph 26.5 mph N/A   Overcast
2:52 PM 34.0 °F 24.6 °F 21.9 °F 61% 29.59 in 10.0 mi SSE 13.8 mph 21.9 mph 0.00 in   Overcast
3:52 PM 34.0 °F 26.0 °F 23.0 °F 64% 29.56 in 10.0 mi South 10.4 mph - N/A   Overcast
4:52 PM 33.1 °F 22.6 °F 25.0 °F 72% 29.53 in 5.0 mi South 16.1 mph 27.6 mph 0.00 in Snow Light Snow
4:59 PM 32.0 °F 22.1 °F 26.6 °F 80% 29.47 in 1.8 mi South 13.8 mph 25.3 mph 0.00 in Snow Light Snow
5:03 PM 32.0 °F 23.0 °F 26.6 °F 80% 29.47 in 1.0 mi South 11.5 mph 25.3 mph 0.00 in Snow Light Snow
5:11 PM 32.0 °F 24.8 °F 26.6 °F 80% 29.47 in 1.5 mi South 8.1 mph 19.6 mph 0.00 in Snow Light Snow
5:16 PM 32.0 °F 23.6 °F 26.6 °F 80% 29.47 in 3.0 mi South 10.4 mph 25.3 mph 0.00 in Snow Light Snow
5:26 PM 33.8 °F 23.5 °F 26.6 °F 75% 29.46 in 9.0 mi SSE 16.1 mph 28.8 mph 0.00 in   Overcast
5:52 PM 34.0 °F 31.0 °F 25.0 °F 70% 29.47 in 10.0 mi Variable 3.5 mph - 0.01 in   Overcast
6:52 PM 36.0 °F 29.6 °F 25.0 °F 64% 29.38 in 10.0 mi SSW 8.1 mph 23.0 mph 0.00 in   Overcast
7:41 PM 33.8 °F 22.5 °F 28.4 °F 81% 29.38 in 1.5 mi South 19.6 mph 29.9 mph 0.01 in Snow Light Snow
7:47 PM 33.8 °F 23.2 °F 28.4 °F 81% 29.36 in 1.2 mi South 17.3 mph 26.5 mph 0.02 in Snow Light Snow
7:52 PM 33.1 °F 23.0 °F 28.0 °F 82% 29.40 in 1.2 mi South 15.0 mph 28.8 mph 0.02 in Snow Light Snow
7:58 PM 32.0 °F 24.2 °F 28.4 °F 87% 29.36 in 0.8 mi SSW 9.2 mph 28.8 mph 0.00 in Snow Light Snow
8:04 PM 32.0 °F 23.0 °F 28.4 °F 87% 29.36 in 1.0 mi South 11.5 mph 21.9 mph 0.01 in Snow Light Snow
8:14 PM 32.0 °F 21.6 °F 28.4 °F 87% 29.37 in 1.2 mi SSW 15.0 mph 18.4 mph 0.01 in Snow Light Snow
8:18 PM 32.0 °F 23.0 °F 28.4 °F 87% 29.37 in 0.8 mi SSW 11.5 mph 19.6 mph 0.01 in Snow Light Snow
8:29 PM 32.0 °F 27.5 °F 30.2 °F 93% 29.37 in 0.5 mi SSW 4.6 mph - 0.02 in Fog , Snow Snow
8:49 PM 32.0 °F 27.5 °F 30.2 °F 93% 29.34 in 1.0 mi Variable 4.6 mph - 0.04 in Snow Light Snow
8:52 PM 32.0 °F 26.4 °F 30.0 °F 92% 29.37 in 1.2 mi SSE 5.8 mph - 0.04 in Snow Light Snow
9:01 PM 32.0 °F 25.6 °F 30.2 °F 93% 29.32 in 1.8 mi South 6.9 mph - 0.00 in Snow Light Snow
9:10 PM 32.0 °F 27.5 °F 30.2 °F 93% 29.32 in 2.0 mi Variable 4.6 mph - 0.00 in Snow Light Snow
9:22 PM 32.0 °F 26.4 °F 30.2 °F 93% 29.31 in 1.8 mi South 5.8 mph - 0.00 in Snow Light Snow
9:30 PM 32.0 °F 28.7 °F 30.2 °F 93% 29.31 in 2.5 mi South 3.5 mph - 0.00 in Snow Light Snow
9:42 PM 32.0 °F - 30.2 °F 93% 29.30 in 3.0 mi Calm Calm - 0.01 in Snow Light Snow
9:52 PM 32.0 °F - 30.0 °F 92% 29.33 in 3.0 mi Calm Calm - 0.01 in Snow Light Snow
9:59 PM 32.0 °F - 28.4 °F 87% 29.29 in 2.5 mi Calm Calm - 0.00 in Snow Light Snow
10:08 PM 32.0 °F - 30.2 °F 93% 29.29 in 1.5 mi Calm Calm - 0.00 in Snow Light Snow
10:19 PM 32.0 °F - 30.2 °F 93% 29.27 in 1.0 mi Calm Calm - 0.01 in Snow Light Snow
10:27 PM 32.0 °F 27.5 °F 30.2 °F 93% 29.25 in 0.8 mi NNW 4.6 mph - 0.02 in Snow Light Snow
10:38 PM 32.0 °F 28.7 °F 30.2 °F 93% 29.24 in 1.0 mi NNE 3.5 mph - 0.03 in Snow Light Snow
10:52 PM 32.0 °F - 30.9 °F 96% 29.26 in 0.8 mi Calm Calm - 0.04 in Snow Light Snow
10:56 PM 32.0 °F - 30.2 °F 93% 29.24 in 1.0 mi Calm Calm - 0.00 in Snow Light Snow
11:14 PM 32.0 °F 27.5 °F 30.2 °F 93% 29.20 in 1.5 mi West 4.6 mph - 0.01 in Snow Light Snow
11:32 PM 32.0 °F 28.7 °F 30.2 °F 93% 29.18 in 1.2 mi North 3.5 mph - 0.01 in Snow Light Snow
11:52 PM 32.0 °F - 30.9 °F 96% 29.21 in 2.5 mi Calm Calm - 0.02 in Snow Light Snow